347  
ASUS41 KBOX 170410  
RWRBOX  
 
REGIONAL WEATHER ROUNDUP  
NATIONAL WEATHER SERVICE BOSTON/NORTON MA  
1200 AM EDT FRI AUG 17 2018  
 
NOTE: "FAIR" INDICATES FEW OR NO CLOUDS BELOW 12,000 FEET WITH NO  
SIGNIFICANT WEATHER AND/OR S TO VISIBILITY
.  
 
MAZALL-170500-  
EASTERN MASSACHUSETTS  
 
CITY SKY/WX TMP DP RH WIND PRES REMARKS
 
BOSTON FAIR 77 66 68 CALM 30.07R  
BEVERLY FAIR 69 66 90 CALM 30.07R  
LAWRENCE FAIR 73 63 70 CALM 30.09S  
BEDFORD FAIR 70 67 90 CALM 30.06S  
BLUE HILL N/A 74 65 73 E8 30.08S  
NORWOOD FAIR 71 69 93 CALM 30.06R  
MARSHFIELD FAIR 72 70 94 CALM 30.07R  
PLYMOUTH MOCLDY 73 70 90 CALM 30.08R  
TAUNTON FAIR 71 69 93 CALM 30.06R FOG  
NEW BEDFORD FAIR 73 72 96 CALM 30.06R  

 
 
MAZALL-170500-  
CAPE COD AND THE ISLANDS  
 
CITY SKY/WX TMP DP RH WIND PRES REMARKS
 
FALMOUTH CLOUDY 73 70 88 CALM 30.08R  
HYANNIS FAIR 72 69 90 CALM 30.06R  
CHATHAM FAIR 73 69 87 CALM 30.07R  
PROVINCETOWN MOCLDY 69 66 90 CALM 30.07R  
NANTUCKET FAIR 76 72 87 NW6 30.07R  
MARTHAS VNYRD FAIR 74 70 87 W5 30.07R  

 
 
MAZALL-170500-  
CENTRAL AND WESTERN MASSACHUSETTS  
 
CITY SKY/WX TMP DP RH WIND PRES REMARKS
 
WORCESTER FAIR 74 67 78 W7 30.11R  
FITCHBURG FAIR 71 68 90 CALM 30.09S  
ORANGE FAIR 71 69 93 CALM 30.10R FOG  
SPRINGFIELD FAIR 70 68 94 CALM 30.06S  
WESTFIELD FAIR 71 70 96 CALM 30.07S  
NORTH ADAMS FAIR 66 64 93 CALM 30.10R FOG  
PITTSFIELD FAIR 67 64 90 CALM 30.11S FOG  

 
 
RIZALL-170500-  
RHODE ISLAND  
 
CITY SKY/WX TMP DP RH WIND PRES REMARKS
 
PROVIDENCE FAIR 77 72 84 W6 30.07R  
NEWPORT FAIR 77 70 79 W6 30.07R  
BLOCK ISLAND FAIR 73 70 90 SW8 30.09R  
SMITHFIELD MOCLDY 73 70 90 W3 30.08S  
WESTERLY FAIR 75 72 90 CALM 30.08R  

 
 
CTZALL-170500-  
CONNECTICUT  
 
CITY SKY/WX TMP DP RH WIND PRES REMARKS
 
BRADLEY INTL FAIR 75 71 87 CALM 30.06S  
HARTFORD FAIR 74 72 93 S5 30.06S  
BRIDGEPORT FAIR 79 72 79 W3 30.07R  
DANBURY FAIR 71 70 96 SW3 30.10S  
GROTON FAIR 75 71 87 CALM 30.07R  
NEW HAVEN FAIR 77 73 87 CALM 30.08R  
CHESTER FAIR 75 72 88 SW5 30.09S  
MERIDEN FAIR 72 70 93 CALM 30.07S  
WILLIMANTIC FAIR 73 72 96 CALM 30.08S  
OXFORD FAIR 72 69 90 CALM 30.11S  

 
 
MEZ002-015-021-024-NHZ003-005-008-011-012-014-VTZ005-008-170500-  
NORTHERN NEW ENGLAND  
 
CITY SKY/WX TMP DP RH WIND PRES REMARKS
 
PORTLAND ME FAIR 65 60 84 N5 30.09R  
BANGOR ME FAIR 60 55 83 CALM 30.08R  
CONCORD NH FAIR 67 64 90 NE5 30.08S  
MANCHESTER NH FAIR 72 68 87 CALM 30.07R  
NASHUA NH FAIR 70 69 97 CALM 30.08S  
PORTSMOUTH NH PTCLDY 70 58 66 N5 30.07R  
JAFFREY NH FAIR 68 67 96 CALM 30.12S  
KEENE NH FAIR N/A N/A N/A CALM 30.09S  
BURLINGTON VT FAIR 63 58 83 E5 30.09S  
MT. WASHINGTON PTCLDY 45 41 87 NW38 N/A  

 
 
NYZ052-076-170500-  
EASTERN NEW YORK  
 
CITY SKY/WX TMP DP RH WIND PRES REMARKS
 
ALBANY FAIR 73 68 84 CALM 30.07S  
NEW YORK CITY FAIR 85 69 58 SW8 30.07S  

 
 
ANZALL-170500-  
MARINE OBSERVATIONS  
 
STATION/POSITION TIME TEMP WIND PRES VSBY WAVE
 
AIR SEA DIR/SP/G HT/PER  
(UTC) (F) (DEG/KT/KT) (MB) (MI) (FT/S)  
BOSTON BUOY 0350 75 74 290/ 2/ 4 1017.5R 1/ 7  
BUZZARDS BAY 0300 76 260/ 11/ 12 1018.2R  
NANTUCKET SOUND 0350 78 78 CALM / 2 1017.9R 1  
MASS BAY-STELLWA 0304 73 69 350/ 4/ 6 1016.2R 1 7/8 1/ 8  
ISLE OF SHOALS 0300 73 330/ 8/ 8 1017.6R  
S OF BLOCK IS 0343 77 N/A 3/ 6  

 
   
.....................KEY......................
 
 
SKY/WX - SKY CONDITION/PRESENT WEATHER  
TMP - TEMPERATURE IN FAHRENHEIT  
DWPT - DEWPOINT IN FAHRENHEIT  
RH - RELATIVE HUMIDITY IN PERCENT  
WIND - DIRECTION AND SPEED IN MPH  
PRES - MEAN SEA LEVEL PRESSURE IN INCHES OF HG  
WCI - WIND CHILL INDEX  
VSB - VISIBILITY IN MILES  
HX - HEAT INDEX  
TC - TEMPERATURE IN CELSIUS  
VRB - VARIABLE WIND DIRECTION  
N/A - NOT AVAILABLE  
 
 
CLICK HERE TO GO TO PREVIOUS BULLETINS.

The Nexlab MA Page
The Nexlab RI Page
The Nexlab NH Page
The Nexlab CT Page Main Text Page